User: anonymous   Login
Location: NJAA Observatory
(40.6819°N, 74.8979°W)
Time: 00:31:05
(UTC-04:00)
Language:

Meteor 2-9 Rocket - Orbit

View from above orbital plane
View from above orbital plane
View from above satellite
View from above satellite

Ground track
Ground track

The orbit data is extracted from the following two-line orbital elements,

1 13719U 82116B   17267.54708657 +.00000122 +00000-0 +54865-4 0  9991
2 13719 081.2515 263.0280 0072810 069.6857 068.9704 14.14610189794419
Epoch (UTC): 24 September 2017 13:07:48
Eccentricity: 0.0072810
inclination: 81.2515°
perigee height: 791 km
apogee height: 896 km
right ascension of ascending node: 263.0280°
argument of perigee: 69.6857°
revolutions per day: 14.14610189
mean anomaly at epoch: 68.9704°
orbit number at epoch: 79441

The dashed part of the orbit path shows where the satellite is in the earth's shadow,  

DLR